Volver al catálogo

ONEWEB-0429

ActivoComunicacionesPO
NORAD 50500·PAYLOAD·🇬🇧 United Kingdom

Lanzado Dec 27, 2021 desde Baikonur Cosmodrome

Loading…

Próximos Pases (próximas 24 horas)

TLE

ActualizadoSource: CelesTrak SupGP

Época: Sep 14, 2026, 23:11 UTC

1 50500C 21132AH  26257.96612685  .00001899  00000+0  48227-2 0  2572
2 50500  87.9157 317.6199 0001951  95.5315 344.0882 13.18682449    15

Sigue ONEWEB-0429 en tiempo real con AllMySat

Download on the App Store